Time-05,TemperatureF,Dew PointF,Humidity,Sea Level PressureIn,VisibilityMPH,Wind Direction,Wind SpeedMPH,Gust SpeedMPH,PrecipitationIn,Events,Conditions,WindDirDegrees,DateUTC
12:00 AM,50.0,48.2,94,30.32,6.2,NNE,4.6,-,N/A,,Partly Cloudy,20,2013-02-14 05:00:00
1:00 AM,49,48,93,,7,North,4.5,,,,Haze,10,2013-02-14 06:00:00
1:00 AM,48.2,48.2,100,30.30,6.2,North,3.5,-,N/A,,Partly Cloudy,10,2013-02-14 06:00:00
2:00 AM,48.2,48.2,100,30.29,6.2,Variable,2.3,-,N/A,,Scattered Clouds,0,2013-02-14 07:00:00
3:00 AM,46.4,46.4,100,30.27,6.2,NNE,3.5,-,N/A,,Partly Cloudy,30,2013-02-14 08:00:00
4:00 AM,47,47,98,,6,NE,2.2,,,,Haze,40,2013-02-14 09:00:00
4:00 AM,46.4,46.4,100,30.26,6.2,Variable,2.3,-,N/A,,Partly Cloudy,0,2013-02-14 09:00:00
5:00 AM,48.2,48.2,100,30.28,6.2,NNE,3.5,-,N/A,,Partly Cloudy,30,2013-02-14 10:00:00
5:30 AM,44.6,42.8,93,30.29,4.3,North,3.5,-,N/A,Fog,Fog,350,2013-02-14 10:30:00
6:00 AM,46.4,44.6,93,30.29,6.2,NNE,5.8,-,N/A,Fog,Patches of Fog,20,2013-02-14 11:00:00
7:00 AM,46,45,96,,5,NNE,6.7,,,Fog,Light Fog,30,2013-02-14 12:00:00
7:00 AM,46.4,44.6,93,30.30,5.0,NNE,5.8,-,N/A,Fog,Fog,30,2013-02-14 12:00:00
7:30 AM,50.0,50.0,100,30.32,5.0,NE,6.9,-,N/A,Fog,Fog,50,2013-02-14 12:30:00
8:00 AM,53.6,48.2,82,30.33,5.6,NE,9.2,-,N/A,,Partly Cloudy,40,2013-02-14 13:00:00
9:00 AM,57.2,15.8,20,30.35,5.6,NE,6.9,-,N/A,,Partly Cloudy,40,2013-02-14 14:00:00
10:00 AM,61,45,45,,6,ENE,6.7,,,,Haze,60,2013-02-14 15:00:00
10:00 AM,60.8,44.6,55,30.34,5.6,ENE,5.8,-,N/A,,Partly Cloudy,60,2013-02-14 15:00:00
11:00 AM,64.4,46.4,52,30.33,5.6,Variable,2.3,-,N/A,,Scattered Clouds,0,2013-02-14 16:00:00
12:00 PM,66.2,44.6,46,30.30,4.3,West,3.5,-,N/A,,Scattered Clouds,270,2013-02-14 17:00:00
1:00 PM,64,51,54,,4,SW,13.4,,,,Haze,230,2013-02-14 18:00:00
1:00 PM,64.4,51.8,64,30.29,4.3,SW,13.8,-,N/A,,Scattered Clouds,230,2013-02-14 18:00:00
2:00 PM,62.6,51.8,68,30.27,4.3,WSW,12.7,-,N/A,,Scattered Clouds,240,2013-02-14 19:00:00
3:00 PM,60.8,51.8,72,30.24,5.0,West,11.5,-,N/A,,Light Drizzle,260,2013-02-14 20:00:00
4:00 PM,59,54,78,,4,WSW,11.2,,,Rain,Light Drizzle,250,2013-02-14 21:00:00
4:00 PM,59.0,53.6,82,30.24,4.3,WSW,11.5,-,N/A,,Light Drizzle,250,2013-02-14 21:00:00
5:00 PM,60.8,53.6,77,30.23,4.3,WSW,9.2,-,N/A,,Scattered Clouds,240,2013-02-14 22:00:00
6:00 PM,57.2,53.6,88,30.24,4.3,WSW,6.9,-,N/A,,Scattered Clouds,240,2013-02-14 23:00:00
7:00 PM,56,51,79,,4,North,6.7,,,,Partly Cloudy,0,2013-02-15 00:00:00
7:00 PM,55.4,51.8,88,30.27,4.3,North,3.5,-,N/A,,Scattered Clouds,360,2013-02-15 00:00:00
8:00 PM,55.4,51.8,88,30.30,4.3,WNW,4.6,-,N/A,,Mostly Cloudy,300,2013-02-15 01:00:00
9:00 PM,55.4,51.8,88,30.33,6.2,WNW,3.5,-,N/A,,Mostly Cloudy,290,2013-02-15 02:00:00
10:00 PM,55,52,84,,6,WNW,4.5,,,,Haze,300,2013-02-15 03:00:00
10:00 PM,55.4,51.8,88,30.35,6.2,WNW,4.6,-,N/A,,Mostly Cloudy,300,2013-02-15 03:00:00
11:00 PM,55.4,51.8,88,30.36,6.2,Variable,2.3,-,N/A,,Mostly Cloudy,0,2013-02-15 04:00:00